Wind_Speed
51 52 53 53 54 55 56 56 57 58 58 58 59 60 62 63 64 66 67 68 70 73 75 76 78 79 78 74 69 62 55 48 43 38 35 31 29 28 28 29 29 30
52 53 54 55 56 57 58 58 59 60 60 60 61 63 64 65 66 67 68 69 72 75 76 78 79 79 77 73 67 59 52 45 40 35 31 28 25 23 23 22 22 23
53 54 55 57 58 59 59 60 61 62 62 63 64 65 67 67 68 69 69 71 73 75 78 79 80 80 77 72 65 56 49 43 38 33 28 25 22 20 18 17 17 19
54 55 57 58 59 60 61 61 62 64 64 65 66 67 68 68 69 70 70 72 74 76 78 79 80 79 77 72 64 56 48 42 36 31 27 23 20 17 14 13 13 14
55 57 58 59 60 61 62 63 64 65 65 66 67 68 69 69 70 70 72 73 74 76 78 79 80 79 77 72 64 57 50 43 36 32 27 23 19 15 12 10 8 9
56 58 59 60 61 62 64 64 65 66 66 67 68 69 70 70 70 71 73 74 75 76 78 80 80 80 78 73 65 57 51 44 37 33 28 23 18 14 11 8 5 5
57 59 60 61 62 63 64 65 66 67 67 68 69 70 71 71 71 72 74 75 75 77 79 80 80 80 78 74 66 59 52 44 37 34 30 24 19 15 11 8 3 3
59 60 61 62 63 65 66 66 67 68 68 68 69 70 71 71 72 73 74 76 76 77 79 79 79 78 77 75 69 61 55 47 38 35 33 27 20 16 13 9 4 3
60 61 62 63 64 66 66 67 68 68 68 68 68 69 71 72 72 73 75 76 77 78 79 79 78 77 76 76 72 66 59 52 43 37 35 31 23 17 15 11 6 6
61 62 63 64 65 66 67 68 68 68 68 67 68 69 70 72 73 74 75 76 77 78 79 80 80 80 78 77 75 71 64 58 50 40 36 34 28 19 16 13 7 7
62 63 64 65 66 67 67 68 68 68 67 67 67 69 70 72 73 74 75 76 77 78 79 80 81 81 81 79 78 76 70 63 55 46 39 35 31 23 16 14 9 7
62 63 65 65 66 67 68 68 68 67 67 66 67 68 70 71 73 74 75 75 76 78 79 80 80 81 81 81 80 79 75 68 60 52 43 37 34 27 18 15 10 8
63 64 65 66 66 67 67 68 68 67 66 66 67 68 70 71 72 74 75 76 76 77 79 80 81 81 80 80 80 78 75 71 64 55 47 40 35 29 22 16 11 8
63 64 65 66 66 67 67 68 68 67 66 66 67 68 69 70 72 73 75 76 77 77 78 79 81 82 81 80 79 77 74 71 65 58 50 42 36 30 24 19 12 6
63 65 66 66 67 67 67 68 67 65 65 66 67 68 69 71 72 73 74 76 78 79 78 78 79 80 80 79 77 76 73 70 66 61 53 45 37 31 25 20 14 7
64 65 65 66 67 67 67 67 66 64 64 65 67 69 70 71 72 73 74 76 78 80 79 77 76 76 77 77 76 75 72 70 67 63 56 48 40 32 26 21 16 10
64 65 65 65 66 67 67 66 64 63 63 65 67 69 71 72 72 73 75 76 78 79 78 76 75 73 74 75 75 73 71 69 67 63 58 51 43 35 27 21 16 12
64 65 65 65 66 66 66 64 63 62 63 65 66 69 70 72 73 74 75 77 77 76 75 74 73 72 72 72 72 71 70 68 65 63 59 53 45 37 29 22 17 13
64 65 64 65 65 65 64 63 62 63 64 66 67 69 70 71 72 74 76 76 76 74 72 71 71 71 71 70 69 69 68 66 64 61 58 54 48 40 32 24 18 13
64 64 64 64 64 63 62 61 62 63 65 67 69 70 70 71 72 74 75 74 73 71 70 70 70 71 70 69 68 66 65 64 62 59 56 53 49 43 35 27 19 13
63 63 63 63 62 61 61 61 62 64 66 68 69 70 70 71 72 73 73 71 70 69 69 69 70 70 71 70 68 65 63 61 60 58 55 51 48 43 38 30 22 15
62 62 62 61 60 60 60 61 63 64 66 68 69 70 71 72 72 71 70 68 67 67 67 67 68 69 70 70 69 65 62 59 57 56 54 51 47 43 38 33 26 18
61 61 60 59 59 59 60 61 63 64 66 67 68 69 69 70 69 69 68 66 65 64 64 64 66 67 68 69 69 66 62 59 56 54 51 49 47 43 39 34 29 22
60 59 58 58 58 59 60 61 62 63 65 65 66 66 66 66 65 65 65 64 62 61 61 62 63 64 66 67 68 67 63 58 55 52 49 47 45 42 39 35 30 25
59 57 57 57 58 60 61 62 62 63 63 63 62 62 63 63 63 62 62 60 59 59 61 62 63 64 64 65 66 66 63 59 55 51 48 45 42 40 38 35 30 26
57 56 56 57 59 60 61 62 62 62 61 60 60 61 61 62 61 61 60 58 56 56 58 61 63 64 64 64 65 65 64 60 56 52 48 44 40 38 36 34 31 27
Wind_Direction
355 354 353 352 352 352 351 351 350 349 347 346 345 345 346 347 347 347 346 346 345 342 342 344 345 343 341 340 339 336 332 328 324 320 315 309 301 293 285 276 268 260
354 353 352 351 351 352 351 351 350 349 348 347 347 347 348 348 348 348 348 348 347 345 345 347 348 347 345 344 343 341 338 335 332 329 325 320 313 304 293 281 270 257
353 351 351 351 351 351 351 350 350 349 349 349 349 349 349 349 349 349 349 349 349 348 348 350 351 350 349 348 348 347 345 342 340 338 335 331 325 315 302 288 272 254
351 350 350 350 350 350 350 351 351 351 350 350 349 350 350 350 350 350 350 351 351 351 351 353 355 354 353 353 352 352 352 349 347 346 346 344 338 329 316 299 281 259
349 348 349 349 349 350 350 351 352 352 351 350 350 350 350 351 351 351 352 353 354 353 353 355 358 358 358 358 357 357 356 354 354 354 355 355 351 343 331 315 293 264
348 347 348 348 348 349 350 352 353 352 352 351 350 351 351 352 352 353 353 354 355 356 356 358 1 2 3 2 2 1 0 359 360 1 0 2 2 356 350 339 311 251
347 347 347 347 348 349 351 352 353 353 352 352 351 352 352 353 353 354 354 356 357 358 358 360 3 6 6 6 6 6 5 3 6 8 6 6 10 11 11 7 355 209
346 346 346 347 348 349 351 352 353 353 352 352 353 353 353 353 354 355 355 357 359 360 360 1 4 8 10 10 10 11 10 9 11 15 13 11 16 24 26 26 44 145
345 346 346 347 348 349 351 352 353 353 353 353 354 354 354 353 354 355 356 358 0 1 1 2 4 9 12 14 14 14 15 13 14 19 21 16 17 30 38 36 57 129
345 346 346 347 348 349 350 352 353 353 352 353 354 354 354 354 354 356 358 360 1 2 3 3 5 8 11 15 17 17 17 16 15 18 24 22 17 25 44 47 60 133
344 345 346 347 348 348 350 351 353 353 352 353 354 355 355 355 355 357 359 1 2 2 3 4 5 8 10 13 17 18 18 18 17 17 22 26 21 19 39 58 70 136
344 345 346 347 347 348 349 351 352 352 352 353 354 355 355 356 356 357 359 1 2 3 4 5 6 7 9 12 15 17 17 18 18 18 19 26 26 20 32 62 82 133
343 344 345 346 346 347 349 350 351 352 352 353 354 355 356 356 357 358 359 1 2 3 4 4 5 6 8 11 13 15 17 17 18 19 19 24 29 27 33 57 82 128
343 344 345 345 346 347 348 349 351 352 352 353 353 354 356 357 358 358 359 360 1 2 3 4 4 5 7 9 10 13 16 17 18 19 20 22 28 32 36 50 71 114
342 343 344 344 345 346 347 349 350 351 352 352 352 354 355 357 358 358 358 359 360 0 2 3 4 4 5 6 8 10 14 16 18 19 20 21 26 32 37 43 56 81
342 342 343 343 344 345 347 348 350 351 351 351 352 353 355 356 357 357 358 358 359 359 359 1 3 4 5 5 6 8 11 14 17 18 20 21 23 29 37 42 46 55
340 341 342 343 343 344 346 347 349 350 350 351 351 353 354 355 355 356 357 357 358 358 358 360 2 5 6 6 6 7 8 11 14 16 18 21 22 25 32 41 47 49
339 340 341 342 343 344 345 347 348 349 350 350 351 352 353 354 354 355 356 356 357 358 359 1 3 5 7 7 7 7 7 9 12 14 15 18 22 23 25 33 44 51
338 339 340 341 342 343 345 346 348 349 349 349 350 351 352 353 353 354 355 356 357 359 1 3 5 7 8 9 9 8 7 7 9 12 13 14 18 22 24 26 35 46
337 338 339 340 341 343 344 346 348 348 348 348 349 350 351 352 352 353 354 356 358 0 3 5 6 7 8 9 9 9 8 7 6 9 12 13 13 17 21 23 27 37
336 337 339 340 341 343 344 346 347 347 347 347 348 349 349 350 351 353 355 357 359 1 4 6 6 6 6 7 8 9 9 8 6 6 9 11 12 13 16 19 21 27
335 336 338 339 341 343 345 346 346 346 346 346 347 347 348 349 351 353 355 357 359 1 3 4 5 4 4 5 6 7 9 9 8 6 5 7 10 11 13 15 16 17
334 336 338 339 341 343 344 345 345 345 345 345 345 346 347 349 351 353 355 356 358 0 1 1 2 2 2 3 3 5 7 9 9 7 4 3 5 8 10 11 12 11
334 336 337 339 341 343 344 344 343 343 344 344 344 345 346 349 351 353 354 355 356 357 358 358 360 0 1 2 2 3 5 7 8 8 5 2 1 4 6 8 8 7
333 335 337 339 341 342 342 342 342 342 342 343 343 345 346 348 350 352 354 354 354 354 354 355 357 358 359 1 1 2 2 4 6 8 6 3 1 0 2 3 3 3
333 335 337 338 339 340 340 341 341 341 342 343 344 345 345 347 349 351 353 354 354 353 352 353 354 356 357 359 0 1 1 2 3 5 6 4 2 359 358 358 358 357
Height
10677 10673 10669 10665 10660 10654 10648 10643 10637 10632 10626 10619 10612 10605 10598 10591 10583 10576 10568 10560 10551 10541 10530 10519 10506 10492 10477 10464 10451 10439 10429 10421 10413 10408 10404 10400 10398 10397 10396 10396 10398 10400
10675 10671 10667 10662 10657 10651 10646 10640 10635 10629 10622 10615 10607 10600 10592 10586 10579 10572 10564 10556 10546 10535 10524 10513 10500 10486 10471 10458 10445 10433 10423 10415 10409 10403 10399 10396 10394 10393 10392 10392 10393 10395
10673 10669 10664 10659 10654 10649 10643 10638 10632 10625 10617 10610 10602 10595 10588 10582 10575 10567 10560 10551 10541 10530 10519 10508 10495 10481 10466 10452 10440 10430 10420 10412 10406 10401 10396 10393 10391 10389 10389 10389 10390 10391
10671 10667 10663 10657 10652 10647 10641 10635 10628 10620 10613 10606 10598 10591 10584 10578 10571 10563 10555 10547 10537 10526 10515 10504 10492 10477 10462 10448 10436 10426 10418 10410 10404 10399 10395 10392 10389 10387 10387 10387 10388 10390
10670 10666 10661 10655 10650 10645 10638 10631 10625 10618 10610 10603 10595 10588 10581 10574 10567 10560 10552 10543 10534 10523 10511 10500 10488 10474 10460 10447 10435 10425 10417 10410 10404 10399 10395 10391 10389 10387 10386 10386 10388 10389
10669 10664 10659 10654 10648 10642 10636 10629 10622 10615 10608 10600 10592 10585 10578 10571 10564 10557 10549 10541 10531 10520 10509 10498 10486 10473 10459 10447 10436 10426 10418 10411 10404 10399 10396 10392 10389 10388 10387 10387 10388 10389
10667 10662 10657 10652 10646 10640 10633 10626 10619 10612 10605 10598 10590 10582 10575 10568 10562 10555 10546 10538 10529 10519 10508 10497 10486 10474 10461 10449 10438 10428 10420 10413 10406 10401 10398 10394 10391 10389 10388 10388 10388 10390
10666 10661 10655 10650 10643 10637 10630 10623 10617 10610 10603 10596 10588 10580 10573 10566 10560 10553 10544 10536 10526 10517 10507 10497 10487 10476 10464 10453 10441 10431 10423 10416 10410 10404 10400 10397 10394 10392 10391 10390 10390 10392
10664 10659 10653 10647 10641 10635 10628 10621 10614 10608 10601 10595 10587 10580 10572 10564 10558 10551 10543 10534 10525 10515 10506 10497 10488 10477 10467 10456 10445 10435 10426 10419 10413 10408 10403 10400 10397 10395 10394 10393 10394 10394
10662 10657 10651 10645 10639 10632 10626 10620 10613 10606 10600 10593 10586 10579 10571 10563 10556 10549 10541 10533 10524 10516 10506 10497 10487 10478 10468 10458 10448 10439 10430 10423 10418 10412 10407 10404 10401 10399 10397 10397 10398 10398
10660 10655 10649 10643 10637 10630 10624 10618 10612 10606 10599 10592 10586 10579 10571 10563 10554 10548 10541 10533 10525 10517 10508 10498 10489 10479 10470 10460 10450 10442 10435 10429 10423 10417 10412 10408 10405 10403 10401 10401 10402 10403
10658 10652 10646 10641 10635 10629 10623 10617 10611 10605 10598 10592 10585 10579 10571 10563 10555 10547 10540 10533 10525 10517 10508 10499 10490 10482 10473 10463 10454 10446 10440 10434 10428 10422 10417 10413 10410 10408 10406 10405 10406 10407
10656 10650 10645 10639 10634 10628 10622 10616 10610 10604 10597 10591 10585 10578 10571 10563 10555 10547 10540 10533 10526 10517 10509 10500 10491 10483 10475 10467 10459 10453 10446 10439 10433 10428 10423 10419 10415 10413 10412 10411 10411 10412
10654 10648 10643 10638 10632 10627 10621 10615 10609 10602 10596 10590 10584 10578 10571 10564 10556 10548 10540 10533 10526 10519 10511 10501 10492 10483 10476 10470 10465 10459 10452 10446 10440 10434 10429 10425 10421 10418 10417 10417 10417 10417
10652 10647 10641 10636 10630 10625 10619 10613 10608 10602 10595 10589 10583 10577 10571 10563 10556 10549 10541 10533 10526 10519 10512 10505 10497 10488 10479 10473 10468 10462 10457 10451 10446 10440 10435 10431 10427 10424 10422 10422 10422 10423
10650 10645 10639 10633 10628 10622 10617 10612 10607 10601 10595 10589 10582 10576 10569 10563 10556 10549 10542 10535 10527 10519 10512 10507 10501 10493 10485 10477 10470 10465 10460 10454 10449 10445 10441 10436 10433 10430 10428 10426 10426 10427
10648 10643 10637 10632 10626 10621 10616 10611 10606 10601 10595 10589 10582 10575 10568 10562 10556 10550 10543 10536 10529 10522 10514 10507 10501 10495 10488 10480 10473 10467 10462 10458 10453 10448 10445 10442 10438 10435 10433 10431 10430 10430
10646 10641 10635 10630 10624 10619 10614 10609 10604 10599 10594 10588 10581 10575 10568 10561 10555 10549 10544 10537 10531 10524 10517 10509 10502 10496 10490 10484 10477 10470 10464 10460 10457 10452 10448 10445 10443 10440 10437 10435 10434 10433
10644 10639 10633 10628 10622 10617 10613 10608 10602 10597 10591 10586 10580 10574 10568 10561 10555 10549 10543 10537 10531 10526 10519 10512 10505 10499 10493 10488 10481 10475 10468 10463 10459 10456 10452 10448 10446 10444 10441 10439 10437 10436
10642 10637 10632 10626 10621 10616 10611 10606 10601 10595 10589 10583 10577 10571 10566 10560 10555 10549 10543 10537 10532 10527 10521 10514 10507 10501 10496 10491 10485 10479 10473 10467 10462 10459 10456 10452 10448 10445 10444 10442 10440 10438
10640 10635 10630 10625 10620 10615 10610 10605 10599 10594 10588 10582 10576 10570 10564 10559 10554 10549 10543 10538 10532 10527 10522 10516 10510 10503 10498 10492 10488 10482 10477 10471 10465 10460 10457 10455 10451 10447 10445 10444 10442 10441
10638 10633 10628 10623 10618 10614 10608 10603 10598 10592 10586 10581 10575 10569 10563 10557 10551 10546 10542 10537 10532 10527 10522 10517 10512 10506 10499 10494 10489 10484 10479 10474 10468 10462 10458 10456 10454 10450 10447 10445 10444 10442
10636 10631 10626 10622 10617 10612 10607 10602 10597 10591 10586 10580 10574 10568 10563 10557 10552 10546 10541 10536 10531 10527 10522 10518 10513 10508 10502 10496 10490 10486 10481 10476 10471 10465 10461 10457 10454 10452 10449 10447 10445 10443
10633 10629 10624 10620 10616 10611 10607 10602 10597 10592 10586 10581 10575 10570 10565 10559 10554 10548 10542 10536 10530 10526 10522 10518 10514 10510 10504 10497 10491 10487 10483 10478 10474 10469 10464 10459 10455 10452 10450 10448 10445 10444
10631 10627 10622 10618 10614 10610 10605 10601 10596 10591 10587 10582 10577 10571 10566 10561 10556 10551 10545 10539 10532 10526 10520 10516 10512 10509 10504 10499 10493 10487 10483 10479 10475 10471 10467 10462 10457 10453 10450 10448 10446 10444
10628 10624 10621 10616 10612 10608 10604 10600 10595 10591 10586 10581 10576 10571 10566 10561 10557 10552 10547 10541 10535 10529 10522 10515 10510 10506 10502 10499 10494 10489 10483 10478 10474 10471 10467 10463 10459 10455 10452 10449 10447 10445